SCP
0 0 0 0 0 0 0 0 0 0 0 0 0 0 0 0 0 0 0 0 0 0 0 0 0 0 0 0 0 0 0 0 0 0 0 0 0 0 0 0 0 0 0 0
0 0 0 0 0 0 0 0 0 0 0 0 0 0 0 0 0 0 0 0 0 0 0 0 0 0 0 0 0 0 0 0 0 0 0 0 0 0 0 0 0 0 0 0
0 0 0 0 0 0 0 0 0 0 0 0 0 0 0 0 0 0 0 0 0 0 0 0 0 0 0 0 0 0 0 0 0 0 0 0 0 0 0 0 0 0 0 0
0 0 0 0 0 0 0 0 0 0 0 0 0 0 0 0 0 0 0 0 0 0 0 0 0 0 0 0 0 0 0 0 0 0 0 0 0 0 0 0 0 0 0 0
0 0 0 0 0 0 0 0 0 0 0 0 0 0 0 0 0 0 0 0 0 0 0 0 0 0 0 0 0 0 0 0 0 0 0 0 0 0 0 0 0 0 0 0
0 0 0 0 0 0 0 0 0 0 0 0 0 0 0 0 0 0 0 0 0 0 0 0 0 0 0 0 0 0 0 0 0 0 0 0 0 0 0 0 0 0 0 0
0 0 0 0 0 0 0 0 0 0 0 0 0 0 0 0 0 0 0 0 0 0 0 0 0 0 0 0 0 0 0 0 0 0 0 0 0 0 0 0 0 0 0 0
0 0 0 0 0 0 0 0 0 0 0 0 0 0 0 0 0 0 0 0 0 0 0 0 0 0 0 0 0 0 0 0 0 0 0 0 0 0 0 0 0 0 0 0
0 0 0 0 0 0 0 0 0 0 0 0 0 0 0 0 0 0 0 0 0 0 0 0 0 0 0 0 0 0 0 0 0 0 0 0 0 0 0 0 0 0 0 0
0 0 0 0 0 0 0 0 0 0 0 0 0 0 0 0 0 0 0 0 0 0 0 0 0 0 0 0 0 0 0 0 0 0 0 0 0 0 0 0 0 0 0 0
0 0 0 0 0 0 0 0 0 0 0 0 0 0 0 0 0 0 0 0 0 0 0 0 0 0 0 0 0 0 0 0 0 0 0 0 0 0 0 0 0 0 0 0
0 0 0 0 0 0 0 0 0 0 0 0 0 0 0 0 0 0 0 0 0 0 0 0 0 0 0 0 0 0 0 0 0 0 0 0 0 0 0 0 0 0 0 0
0 0 0 0 0 0 0 0 0 0 0 0 0 0 0 0 0 0 0 0 0 0 0 0 0 0 0 0 0 0 0 0 0 0 0 0 0 0 0 0 0 0 0 0
0 0 0 0 0 0 0 0 0 0 0 0 0 0 0 -0 0 0 0 0 0 0 0 0 0 0 0 0 0 0 0 0 0 0 0 0 0 0 0 0 0 0 0 0
0 0 0 0 0 0 0 0 0 0 0 0 0 0 0 -0 -0 0 0 0 0 0 0 0 0 0 0 0 0 0 0 0 0 0 0 0 0 0 0 0 0 0 0 0
0 0 0 0 0 0 0 0 0 0 0 0 0 0 0 0 0 0 0 0 0 0 0 0 0 0 0 0 0 0 0 0 0 0 0 0 0 0 0 0 0 0 0 0
0 0 0 0 0 0 0 0 0 0 0 0 0 0 0 0 0 0 0 0 0 0 0 0 0 0 0 0 0 0 0 0 0 0 0 0 0 0 0 0 0 0 0 0
0 0 0 0 0 0 0 0 0 0 0 0 0 0 0 0 0 0 0 0 0 0 0 0 0 0 0 0 0 0 0 0 0 0 0 0 0 0 0 0 0 0 0 0
0 0 0 0 0 0 0 0 0 0 0 0 0 0 0 0 0 0 0 0 0 0 0 0 0 0 0 0 0 0 0 0 0 0 0 0 0 0 0 0 0 0 0 0
0 0 0 0 0 0 0 0 0 0 0 0 0 0 0 0 0 0 0 0 0 0 0 0 0 0 0 0 0 0 0 0 0 0 0 0 0 0 0 0 0 0 0 0
0 0 0 0 0 0 0 0 0 0 0 0 0 0 0 0 0 0 0 0 0 0 0 0 0 0 0 0 0 0 0 0 0 0 0 0 0 0 0 0 0 0 0 0
0 0 0 0 0 0 0 0 0 0 0 0 0 0 0 0 0 0 0 0 0 0 0 0 0 0 0 0 0 0 0 0 0 0 0 0 0 0 0 0 0 0 0 0
0 0 0 0 0 0 0 0 0 0 0 0 0 0 0 0 0 0 0 0 0 0 0 0 0 0 0 0 0 0 0 0 0 0 0 0 0 0 0 0 0 0 0 0
0 0 0 0 0 0 0 0 0 0 0 0 0 0 -0 -0 0 0 0 0 0 0 0 0 0 0 0 0 0 0 0 0 0 0 0 0 0 0 0 0 0 0 0 0
0 0 0 0 0 0 0 0 0 0 0 0 0 0 0 0 0 0 0 0 0 0 0 0 0 0 0 0 0 0 0 0 0 0 0 0 0 0 0 0 0 0 0 0
0 0 0 0 0 0 0 0 0 0 0 0 0 0 0 0 0 0 0 0 0 0 0 0 0 0 0 0 0 0 0 0 0 0 0 0 0 0 0 0 0 0 0 0
Wind_Speed
8 10 13 15 16 11 8 10 11 9 4 8 14 18 17 13 13 14 13 12 11 11 9 8 9 11 12 13 14 15 16 16 13 11 11 10 10 9 9 9 11 12 11 12
8 16 15 12 12 12 12 13 13 8 5 8 13 19 17 14 13 12 12 11 10 9 8 7 8 10 12 13 14 15 16 15 15 12 11 10 9 8 9 8 10 12 12 12
16 9 11 12 12 14 15 16 14 10 5 7 10 15 12 10 10 10 11 11 10 9 8 8 8 10 11 13 14 13 15 15 16 15 10 8 7 6 7 9 9 12 13 13
15 10 9 14 15 15 15 13 12 10 9 7 5 11 11 9 11 12 12 11 10 9 8 7 8 10 11 11 11 13 13 14 15 15 13 14 11 11 11 9 9 11 13 13
11 12 13 15 15 16 8 5 8 9 10 11 9 11 11 7 12 12 11 10 10 8 8 7 7 8 9 10 10 11 12 13 14 15 15 15 13 11 9 9 11 11 11 12
9 7 11 12 8 10 7 5 4 5 7 12 12 12 12 9 11 9 9 9 8 7 7 7 6 7 7 8 9 10 12 13 14 15 15 16 16 13 12 12 10 9 8 9
9 9 7 5 7 9 10 8 6 7 9 10 7 12 13 9 9 9 8 8 8 7 7 7 7 7 8 9 9 10 12 13 14 15 15 15 15 15 14 12 11 10 8 8
12 12 13 10 11 12 15 14 10 8 8 7 8 13 11 8 8 9 10 9 8 9 8 8 7 7 7 8 10 11 12 12 13 14 14 14 14 11 10 12 10 10 8 9
11 10 8 10 8 11 12 13 10 8 6 8 9 9 11 9 10 11 11 10 11 10 9 9 8 7 8 8 10 11 12 12 12 13 13 12 13 12 11 11 10 9 8 7
8 7 6 8 6 6 8 9 7 9 9 11 11 13 10 9 11 10 11 12 11 10 10 9 8 7 7 7 8 9 10 11 11 12 11 9 11 11 11 10 11 10 9 9
9 9 5 8 14 15 10 11 9 8 8 9 10 9 7 10 8 9 9 10 10 10 10 8 7 6 6 7 8 9 9 10 10 11 11 11 10 10 10 10 10 9 9 9
9 7 8 10 6 8 14 14 14 10 10 9 9 8 2 6 5 6 7 7 8 8 8 8 7 6 7 7 8 8 9 9 9 9 10 10 9 9 10 10 9 9 9 8
8 7 6 6 6 6 11 13 15 13 10 11 13 11 1 2 5 6 7 7 7 7 8 8 7 7 7 7 8 8 9 9 8 9 9 9 10 10 10 9 9 8 8 8
6 8 11 12 7 9 11 14 16 15 13 16 20 18 11 9 9 8 8 8 7 7 8 8 8 8 8 7 8 8 8 8 8 9 9 9 10 9 9 8 8 8 8 8
7 9 12 13 9 9 13 17 20 22 22 20 20 20 19 15 12 11 9 8 8 8 8 9 9 8 8 8 8 8 8 8 8 9 9 9 8 8 8 8 7 7 7 7
8 8 10 13 11 11 14 18 20 23 24 25 23 23 18 16 14 13 12 10 10 10 10 10 10 9 9 9 9 9 9 8 9 9 9 8 8 8 8 7 7 7 7 6
8 8 8 11 8 8 17 20 21 20 21 21 25 24 15 16 16 15 14 12 12 12 11 11 11 10 9 9 9 9 9 8 9 9 8 8 8 8 8 7 7 7 6 6
10 10 7 6 6 14 12 10 18 20 21 21 20 18 16 17 16 15 14 14 14 13 12 11 10 9 8 8 8 8 8 9 9 9 8 8 8 8 7 7 7 6 5 5
14 12 7 6 10 13 12 8 12 16 19 18 21 20 18 12 10 14 14 14 15 14 11 9 8 8 7 8 8 9 9 9 9 9 9 9 8 8 8 8 7 6 5 5
13 13 9 8 9 12 10 5 6 9 16 12 15 18 16 9 10 12 9 10 12 11 8 7 6 6 7 8 9 10 10 10 10 9 8 8 8 8 8 7 6 5 4 4
11 11 14 13 12 13 8 3 8 10 8 3 10 13 12 13 14 9 5 7 8 7 7 6 6 6 7 8 9 10 9 9 8 7 7 7 7 7 7 6 5 5 4 4
11 10 12 11 12 14 6 8 11 8 4 3 5 7 9 12 13 10 8 7 6 6 6 6 6 5 5 7 9 9 9 7 7 8 8 7 7 6 5 6 5 5 5 4
11 11 8 11 12 7 8 11 10 6 6 6 6 7 8 9 10 10 9 9 8 7 5 5 6 5 5 7 8 9 8 8 8 8 8 7 7 6 6 6 6 5 4 4
9 8 10 11 14 13 11 13 11 9 9 9 8 8 8 9 10 10 8 7 7 6 5 5 6 6 6 6 7 7 7 8 9 9 8 7 7 6 5 4 4 4 4 4
11 8 11 16 16 13 14 15 15 12 11 11 10 10 10 10 10 10 9 7 6 5 5 5 6 6 6 6 6 6 8 9 9 8 7 6 6 6 5 4 3 3 3 3
13 13 14 14 11 10 12 12 13 13 13 13 12 12 11 10 10 9 8 7 5 5 5 5 6 6 6 6 6 7 8 9 9 8 7 5 5 4 4 4 2 1 2 2
Wind_Direction
192 208 213 212 217 236 238 235 242 244 231 246 256 266 270 267 254 253 253 250 245 240 235 223 216 209 203 201 202 200 199 199 195 194 197 200 205 206 208 210 211 208 208 207
200 222 222 219 218 224 232 241 248 252 234 255 272 273 271 261 252 250 250 246 240 234 224 215 209 201 200 199 199 200 200 197 196 197 197 202 203 207 210 208 213 213 211 209
217 222 209 206 209 218 229 238 245 251 263 242 281 272 253 242 242 244 242 242 241 235 232 219 206 202 199 199 200 199 199 197 197 197 194 190 193 199 204 209 210 213 212 211
228 219 203 209 215 215 232 230 239 244 256 258 257 280 263 247 249 239 232 226 228 226 228 222 209 202 201 201 198 200 198 197 196 194 195 195 199 205 209 207 208 210 211 213
217 210 209 218 218 213 229 207 220 236 249 261 237 258 266 243 246 235 223 217 219 221 222 220 213 207 202 197 193 197 196 196 195 197 199 203 210 215 213 208 210 211 210 212
231 218 222 225 220 206 169 160 186 221 241 250 235 239 264 234 236 230 217 213 213 216 220 220 211 204 198 192 190 193 194 197 196 198 202 206 211 212 210 209 209 211 209 210
220 220 212 195 182 184 190 193 210 215 219 239 212 235 251 249 240 241 237 227 219 219 218 213 207 201 195 191 191 192 195 197 196 199 204 208 213 214 215 213 213 211 210 209
209 215 202 199 202 193 202 208 219 232 237 233 209 236 248 250 247 247 249 248 241 228 217 212 209 205 200 196 194 193 196 197 196 199 204 208 211 213 217 216 216 215 215 213
213 222 193 203 207 197 195 215 233 258 269 260 233 244 267 249 240 235 233 232 229 220 213 211 207 205 202 199 198 196 195 196 197 200 202 206 208 211 215 216 217 219 220 215
219 227 196 188 184 214 218 185 185 213 229 240 242 239 240 225 221 217 218 218 218 214 212 212 211 209 209 206 199 198 198 198 198 199 201 204 207 210 212 214 215 216 217 214
216 216 194 191 203 196 186 192 203 212 233 239 247 239 225 238 237 233 227 223 218 214 213 213 212 211 209 203 197 196 197 197 197 198 199 201 204 205 208 212 214 214 215 214
205 220 222 217 213 231 211 206 200 210 219 233 256 258 185 244 260 256 249 240 233 226 220 216 214 211 206 201 198 195 195 196 196 194 196 199 199 201 205 209 211 212 214 213
188 206 216 210 206 205 220 216 217 229 238 230 237 248 175 266 271 258 256 253 238 227 224 223 220 215 209 204 199 197 195 195 192 190 193 194 196 198 203 206 206 207 209 210
198 216 222 229 228 203 215 218 215 217 229 235 237 248 252 259 265 267 265 264 251 236 228 222 220 219 213 205 200 196 194 190 186 186 190 194 196 196 199 200 201 203 204 206
199 230 236 252 258 233 228 226 218 221 230 240 246 247 251 259 265 270 270 263 254 245 235 227 224 222 212 204 199 195 191 185 182 185 190 194 192 190 191 194 196 197 200 203
199 225 231 243 243 242 244 235 227 228 234 241 251 254 253 260 264 265 263 259 254 249 243 235 229 222 214 206 198 190 189 183 181 186 190 185 184 184 188 191 192 194 197 198
205 210 219 240 238 249 246 230 225 226 228 233 242 249 255 256 255 256 259 259 255 253 250 241 232 222 214 205 196 192 185 177 180 185 184 181 182 183 185 184 188 192 195 196
212 215 221 236 217 235 249 229 224 232 236 234 244 252 251 254 261 262 258 258 257 254 251 244 234 223 213 201 191 183 174 176 179 182 182 180 181 181 180 183 189 191 192 197
214 212 211 213 234 255 259 237 219 226 243 238 242 250 254 262 272 260 253 250 250 250 248 245 233 219 202 191 181 172 174 176 180 184 183 180 180 178 179 185 188 187 188 195
209 211 214 215 230 241 249 219 210 221 250 242 236 243 246 230 245 255 252 246 248 249 245 234 217 202 194 186 175 175 178 180 187 186 181 177 178 178 181 183 180 180 183 188
192 203 214 221 234 252 258 185 169 207 249 247 231 240 237 224 235 260 262 253 250 247 239 222 204 198 193 177 173 180 182 190 185 173 168 169 174 176 175 171 172 172 172 179
201 202 209 214 227 241 192 168 199 237 285 266 254 247 243 244 252 257 258 259 253 243 231 214 203 200 186 177 179 183 189 180 163 160 162 166 166 161 165 165 167 171 173 181
221 218 215 214 230 252 195 215 236 262 261 262 269 270 259 259 262 261 254 252 249 243 233 216 204 194 187 184 188 188 180 161 158 159 162 161 159 161 167 168 170 173 179 187
229 228 237 242 246 249 245 250 258 257 262 268 270 271 261 263 266 265 259 250 244 239 229 212 199 197 194 191 193 186 165 161 159 160 160 159 161 162 166 168 174 180 187 192
233 214 230 244 252 261 256 253 257 259 266 271 270 266 261 262 265 262 259 250 240 232 221 208 203 202 195 186 186 173 166 163 160 158 157 160 163 164 164 167 177 194 201 204
229 227 231 243 246 250 264 265 261 258 258 261 266 273 271 260 260 259 255 251 239 229 214 206 204 199 191 181 178 172 170 167 159 157 159 162 164 163 163 158 141 114 205 207